NEWARK_INTL_AIRPORT current weather conditions

sailwx.info

Wind from 320 at 12 knots gusting 19

Air temperature 4.0° C
Visibility: greater than 8.7 NM
Dewpoint -4.0° C

Last reported at 2020-Jan-28 23:10 UTC.
Time now 2020-Jan-28 23:34 UTC

Location: N 40°42' W 074°10'.
View on Google Maps.

See reports from other nearby stations

  
Tides and Currents Weather Stations Pressure Air Temp Water Temp Dewpoint Dewpoint Depression Visibility Wind Speed Wind Dir Waves Ship Positions
date/time (UTC)wind fromknots sea level pressurealtimeterstation pressurevisibilityair tempwater tempwave heightnotes
2020-Jan-28 23:10 320 12 gusting 19 8.7 4.0
2020-Jan-28 23:05 330 12 8.7 4.0
2020-Jan-28 23:00 310 13 8.7 4.0
2020-Jan-28 22:55 330 16 8.7 4.0
2020-Jan-28 22:51 320 12 gusting 21 8.7 4.4
2020-Jan-28 22:50 320 13 8.7 4.0
2020-Jan-28 22:45 340 16 8.7 4.0
2020-Jan-28 22:40 320 13 8.7 4.0
2020-Jan-28 22:35 310 13 8.7 4.0
2020-Jan-28 22:30 320 15 8.7 4.0
2020-Jan-28 22:25 320 13 gusting 18 8.7 4.0
2020-Jan-28 22:20 330 16 8.7 5.0
2020-Jan-28 22:15 310 10 8.7 5.0
2020-Jan-28 22:10 330 13 8.7 5.0
2020-Jan-28 22:05 320 15 gusting 20 8.7 5.0
2020-Jan-28 22:00 320 12 8.7 5.0
2020-Jan-28 21:55 320 11 8.7 5.0
2020-Jan-28 21:51 320 14 gusting 20 8.7 5.0
2020-Jan-28 21:50 310 13 gusting 19 8.7 5.0
2020-Jan-28 21:45 320 15 gusting 20 8.7 5.0
2020-Jan-28 21:40 320 14 8.7 5.0
2020-Jan-28 21:35 310 8 8.7 5.0
2020-Jan-28 21:30 300 10 8.7 5.0
2020-Jan-28 21:25 300 10 8.7 5.0
2020-Jan-28 21:20 300 10 8.7 5.0
2020-Jan-28 21:15 330 11 8.7 5.0
2020-Jan-28 21:10 330 12 8.7 5.0
2020-Jan-28 21:05 320 11 gusting 17 8.7 5.0
2020-Jan-28 21:00 330 16 8.7 6.0
2020-Jan-28 20:55 320 12 8.7 6.0
2020-Jan-28 20:51 320 13 gusting 20 8.7 5.0
2020-Jan-28 20:50 310 14 8.7 5.0
2020-Jan-28 20:45 320 13 8.7 6.0
2020-Jan-28 20:40 330 15 8.7 6.0
2020-Jan-28 20:35 320 11 gusting 16 8.7 6.0
2020-Jan-28 20:30 300 14 gusting 19 8.7 6.0
2020-Jan-28 20:25 320 14 8.7 6.0
2020-Jan-28 20:20 320 14 8.7 6.0
2020-Jan-28 20:15 320 15 8.7 6.0
2020-Jan-28 20:10 330 15 8.7 6.0
2020-Jan-28 20:05 340 17 8.7 6.0
2020-Jan-28 20:00 310 16 8.7 6.0
2020-Jan-28 19:55 330 16 8.7 6.0
2020-Jan-28 19:51 310 17 gusting 25 8.7 5.6
2020-Jan-28 19:50 310 17 gusting 22 8.7 6.0
2020-Jan-28 19:45 320 16 8.7 6.0
2020-Jan-28 19:40 300 17 8.7 6.0
2020-Jan-28 19:35 310 17 8.7 7.0
2020-Jan-28 19:30 310 20 8.7 7.0
2020-Jan-28 19:25 310 18 gusting 24 8.7 6.0
2020-Jan-28 19:20 310 20 8.7 6.0
2020-Jan-28 19:15 320 19 gusting 24 8.7 7.0
2020-Jan-28 19:10 320 19 8.7 7.0
2020-Jan-28 19:05 320 14 8.7 7.0
2020-Jan-28 19:00 300 15 gusting 23 8.7 7.0
2020-Jan-28 18:55 310 15 gusting 22 8.7 7.0
2020-Jan-28 18:51 320 13 gusting 27 8.7 6.7
2020-Jan-28 18:50 310 16 8.7 6.0
2020-Jan-28 18:45 320 18 8.7 6.0
2020-Jan-28 18:40 310 15 8.7 7.0
2020-Jan-28 18:35 320 12 gusting 17 8.7 7.0
2020-Jan-28 18:30 310 18 gusting 23 8.7 6.0
2020-Jan-28 18:25 320 16 gusting 20 8.7 6.0
2020-Jan-28 18:20 320 17 8.7 6.0
2020-Jan-28 18:15 310 18 8.7 7.0
2020-Jan-28 18:10 310 18 8.7 7.0
2020-Jan-28 18:05 290 17 8.7 7.0
2020-Jan-28 18:00 300 15 8.7 7.0
2020-Jan-28 17:55 300 17 8.7 7.0
2020-Jan-28 17:51 300 15 gusting 20 8.7 7.2
2020-Jan-28 17:50 310 14 gusting 20 8.7 7.0
2020-Jan-28 17:45 320 17 8.7 7.0
2020-Jan-28 17:40 320 16 8.7 7.0
2020-Jan-28 17:35 310 16 8.7 7.0
2020-Jan-28 17:30 320 16 8.7 7.0
2020-Jan-28 17:25 300 13 8.7 7.0
2020-Jan-28 17:20 300 13 8.7 7.0
2020-Jan-28 17:15 290 13 8.7 7.0
2020-Jan-28 17:10 300 16 gusting 24 8.7 7.0
2020-Jan-28 17:05 300 16 8.7 7.0
2020-Jan-28 17:00 300 15 8.7 7.0
2020-Jan-28 16:55 330 15 8.7 7.0
2020-Jan-28 16:51 300 13 gusting 20 8.7 6.7
2020-Jan-28 16:50 310 13 8.7 7.0
2020-Jan-28 16:45 320 15 8.7 7.0
2020-Jan-28 16:40 310 16 8.7 7.0
2020-Jan-28 16:35 310 13 8.7 7.0
2020-Jan-28 16:30 310 12 8.7 7.0
2020-Jan-28 16:25 330 12 8.7 6.0
2020-Jan-28 16:20 330 14 8.7 6.0
2020-Jan-28 16:15 330 16 8.7 6.0
2020-Jan-28 16:10 330 15 8.7 6.0
2020-Jan-28 16:05 310 14 8.7 6.0
2020-Jan-28 16:00 310 17 gusting 22 8.7 6.0
2020-Jan-28 15:55 310 11 8.7 6.0
2020-Jan-28 15:51 330 14 8.7 6.1
2020-Jan-28 15:50 330 14 8.7 6.0
2020-Jan-28 15:45 300 16 8.7 6.0
2020-Jan-28 15:40 310 15 gusting 22 8.7 6.0
2020-Jan-28 15:35 310 15 8.7 6.0
2020-Jan-28 15:30 320 11 8.7 6.0
2020-Jan-28 15:25 300 13 8.7 5.0
2020-Jan-28 15:20 320 13 gusting 18 8.7 6.0
2020-Jan-28 15:15 320 13 8.7 5.0
2020-Jan-28 15:10 310 15 8.7 5.0
2020-Jan-28 15:05 310 17 8.7 5.0
2020-Jan-28 15:00 320 15 8.7 5.0
2020-Jan-28 14:55 310 11 8.7 5.0
2020-Jan-28 14:51 310 13 gusting 19 8.7 5.0
2020-Jan-28 14:50 310 14 8.7 5.0
2020-Jan-28 14:45 300 11 gusting 18 8.7 5.0
2020-Jan-28 14:40 330 11 8.7 4.0
2020-Jan-28 14:35 320 10 8.7 4.0
2020-Jan-28 14:30 320 12 8.7 4.0
2020-Jan-28 14:25 330 12 8.7 4.0
2020-Jan-28 14:20 320 13 8.7 4.0
2020-Jan-28 14:15 310 9 8.7 4.0
2020-Jan-28 14:10 310 7 8.7 4.0
2020-Jan-28 14:05 300 13 8.7 4.0
2020-Jan-28 14:00 290 8 8.7 4.0
2020-Jan-28 13:55 300 10 8.7 4.0
2020-Jan-28 13:51 290 8 gusting 13 8.7 3.9
2020-Jan-28 13:50 290 8 8.7 4.0
2020-Jan-28 13:45 300 8 8.7 4.0
2020-Jan-28 13:40 310 9 8.7 3.0
2020-Jan-28 13:35 290 9 8.7 3.0
2020-Jan-28 13:30 300 11 8.7 3.0
2020-Jan-28 13:25 290 9 8.7 3.0
2020-Jan-28 13:20 300 10 8.7 3.0
2020-Jan-28 13:15 320 8 8.7 3.0
2020-Jan-28 13:10 300 10 8.7 3.0
2020-Jan-28 13:05 300 10 8.7 3.0
2020-Jan-28 13:00 300 11 gusting 17 8.7 3.0
2020-Jan-28 12:55 290 12 8.7 3.0
2020-Jan-28 12:51 290 11 8.7 3.3
2020-Jan-28 12:50 290 12 8.7 3.0
2020-Jan-28 12:45 290 12 8.7 3.0
2020-Jan-28 12:40 290 12 8.7 3.0
2020-Jan-28 12:35 290 13 8.7 3.0
2020-Jan-28 12:30 300 11 8.7 3.0
2020-Jan-28 12:25 290 13 8.7 3.0
2020-Jan-28 12:20 290 10 8.7 3.0
2020-Jan-28 12:15 290 13 8.7 3.0
2020-Jan-28 12:10 290 11 8.7 3.0
2020-Jan-28 12:05 290 10 8.7 3.0
2020-Jan-28 12:00 290 10 8.7 3.0
2020-Jan-28 11:55 290 8 8.7 3.0
2020-Jan-28 11:51 290 8 8.7 3.3
2020-Jan-28 11:50 290 9 8.7 3.0
2020-Jan-28 11:45 300 10 8.7 3.0
2020-Jan-28 11:40 300 10 8.7 3.0
2020-Jan-28 11:35 310 10 8.7 3.0
2020-Jan-28 11:30 310 11 8.7 3.0
2020-Jan-28 11:25 310 16 gusting 20 8.7 3.0
2020-Jan-28 11:20 310 10 8.7 3.0
2020-Jan-28 11:15 320 9 8.7 3.0
2020-Jan-28 11:10 300 9 8.7 3.0
2020-Jan-28 11:05 310 8 8.7 3.0
2020-Jan-28 11:00 300 10 8.7 3.0
2020-Jan-28 10:55 290 11 8.7 3.0
2020-Jan-28 10:51 280 9 gusting 19 8.7 3.3
2020-Jan-28 10:50 280 11 8.7 3.0
2020-Jan-28 10:45 290 13 8.7 3.0
2020-Jan-28 10:40 290 12 8.7 3.0
2020-Jan-28 10:35 290 14 8.7 3.0
2020-Jan-28 10:30 290 11 8.7 3.0
2020-Jan-28 10:25 300 9 8.7 3.0
2020-Jan-28 10:20 290 11 8.7 3.0
2020-Jan-28 10:15 290 9 8.7 3.0
2020-Jan-28 10:10 290 10 8.7 3.0
2020-Jan-28 10:05 290 12 8.7 3.0
2020-Jan-28 10:00 300 10 8.7 3.0
2020-Jan-28 09:55 290 13 gusting 20 8.7 3.0
2020-Jan-28 09:51 290 11 8.7 3.3
2020-Jan-28 09:50 290 10 8.7 3.0
2020-Jan-28 09:45 290 14 8.7 3.0
2020-Jan-28 09:40 300 11 8.7 3.0
2020-Jan-28 09:35 300 11 8.7 3.0
2020-Jan-28 09:30 300 9 8.7 3.0
2020-Jan-28 09:25 300 12 8.7 3.0
2020-Jan-28 09:20 300 9 gusting 14 8.7 3.0
2020-Jan-28 09:15 300 12 8.7 3.0
2020-Jan-28 09:10 310 12 8.7 3.0
2020-Jan-28 09:05 300 11 8.7 3.0
2020-Jan-28 09:00 310 13 8.7 3.0
2020-Jan-28 08:55 310 14 8.7 3.0
2020-Jan-28 08:51 300 14 gusting 22 8.7 3.3
2020-Jan-28 08:50 300 15 gusting 23 8.7 3.0
2020-Jan-28 08:45 300 12 8.7 3.0
2020-Jan-28 08:40 300 10 8.7 3.0
2020-Jan-28 08:35 300 10 8.7 3.0
2020-Jan-28 08:30 300 11 8.7 3.0
2020-Jan-28 08:25 300 9 8.7 3.0
2020-Jan-28 08:20 310 8 8.7 4.0
2020-Jan-28 08:15 310 9 8.7 4.0
2020-Jan-28 08:10 300 10 8.7 4.0
2020-Jan-28 08:05 300 9 8.7 4.0
2020-Jan-28 08:00 290 11 8.7 4.0
2020-Jan-28 07:55 300 9 8.7 4.0
2020-Jan-28 07:51 300 12 8.7 3.9
2020-Jan-28 07:50 290 10 8.7 4.0
2020-Jan-28 07:45 290 12 8.7 4.0
2020-Jan-28 07:40 290 10 8.7 4.0
2020-Jan-28 07:35 290 11 8.7 4.0
2020-Jan-28 07:30 300 11 gusting 16 8.7 4.0
2020-Jan-28 07:25 290 10 8.7 4.0
2020-Jan-28 07:20 280 12 8.7 4.0
2020-Jan-28 07:15 290 12 8.7 4.0
2020-Jan-28 07:10 290 11 8.7 4.0
2020-Jan-28 07:05 290 10 8.7 4.0
2020-Jan-28 07:00 290 11 8.7 4.0
2020-Jan-28 06:55 290 10 8.7 4.0
2020-Jan-28 06:51 280 8 8.7 3.9
2020-Jan-28 06:50 290 8 8.7 4.0
2020-Jan-28 06:45 300 10 8.7 4.0
2020-Jan-28 06:40 290 9 8.7 4.0
2020-Jan-28 06:35 310 10 8.7 4.0
2020-Jan-28 06:30 310 10 8.7 4.0
2020-Jan-28 06:25 300 8 8.7 4.0
2020-Jan-28 06:20 310 9 8.7 4.0
2020-Jan-28 06:15 310 9 8.7 4.0
2020-Jan-28 06:10 320 12 8.7 4.0
2020-Jan-28 06:05 330 11 8.7 4.0
2020-Jan-28 06:00 330 11 8.7 4.0
2020-Jan-28 05:55 330 12 8.7 4.0
2020-Jan-28 05:51 330 13 8.7 4.4
2020-Jan-28 05:50 330 13 8.7 4.0
2020-Jan-28 05:45 330 14 8.7 4.0
2020-Jan-28 05:40 320 11 8.7 4.0
2020-Jan-28 05:35 320 12 8.7 4.0
2020-Jan-28 05:30 330 10 8.7 4.0
2020-Jan-28 05:25 320 8 8.7 4.0
2020-Jan-28 05:20 320 10 8.7 4.0
2020-Jan-28 05:15 310 10 8.7 4.0
2020-Jan-28 05:10 330 12 8.7 4.0
2020-Jan-28 05:05 310 11 8.7 4.0
2020-Jan-28 05:00 310 8 8.7 4.0
2020-Jan-28 04:55 300 9 8.7 4.0
2020-Jan-28 04:51 300 8 8.7 4.4
2020-Jan-28 04:50 310 9 8.7 4.0
2020-Jan-28 04:45 310 8 8.7 4.0
2020-Jan-28 04:40 310 8 8.7 4.0
2020-Jan-28 04:35 310 10 8.7 4.0
2020-Jan-28 04:30 310 12 gusting 18 8.7 4.0
2020-Jan-28 04:25 320 12 8.7 4.0
2020-Jan-28 04:20 330 13 8.7 4.0
2020-Jan-28 04:15 320 15 8.7 5.0
2020-Jan-28 04:10 330 16 8.7 5.0
2020-Jan-28 04:05 320 15 gusting 22 8.7 5.0
2020-Jan-28 04:00 320 14 8.7 5.0
2020-Jan-28 03:55 320 11 8.7 5.0
2020-Jan-28 03:51 320 13 gusting 19 8.7 5.0
2020-Jan-28 03:50 320 12 8.7 5.0
2020-Jan-28 03:45 320 12 8.7 5.0
2020-Jan-28 03:40 330 11 8.7 5.0
2020-Jan-28 03:35 330 9 8.7 5.0
2020-Jan-28 03:30 330 9 8.7 5.0
2020-Jan-28 03:25 340 9 8.7 5.0
2020-Jan-28 03:20 350 10 8.7 5.0
2020-Jan-28 03:15 340 11 8.7 6.0
2020-Jan-28 03:10 330 11 8.7 6.0
2020-Jan-28 03:05 330 9 8.7 6.0
2020-Jan-28 03:00 310 8 8.7 6.0
2020-Jan-28 02:55 330 7 8.7 6.0
2020-Jan-28 02:51 320 6 8.7 5.6
2020-Jan-28 02:50 330 8 8.7 6.0
2020-Jan-28 02:45 310 8 8.7 6.0
2020-Jan-28 02:40 320 9 8.7 6.0
2020-Jan-28 02:35 320 6 8.7 6.0
2020-Jan-28 02:30 300 8 8.7 6.0
2020-Jan-28 02:25 310 8 8.7 6.0
2020-Jan-28 02:20 310 8 8.7 6.0
2020-Jan-28 02:15 300 8 8.7 6.0
2020-Jan-28 02:10 300 9 8.7 6.0
2020-Jan-28 02:05 300 9 8.7 6.0
2020-Jan-28 02:00 300 8 8.7 6.0
2020-Jan-28 01:55 290 9 8.7 6.0
2020-Jan-28 01:51 290 7 8.7 6.1
2020-Jan-28 01:50 300 8 8.7 6.0
2020-Jan-28 01:45 290 7 8.7 6.0
2020-Jan-28 01:40 290 8 8.7 6.0
2020-Jan-28 01:35 290 7 8.7 6.0
2020-Jan-28 01:30 300 8 8.7 6.0
2020-Jan-28 01:25 290 8 8.7 6.0
2020-Jan-28 01:20 280 7 8.7 6.0
2020-Jan-28 01:15 270 5 8.7 6.0
2020-Jan-28 01:10 290 5 8.7 6.0
2020-Jan-28 00:51 290 6 8.7 6.1
2020-Jan-28 00:50 290 7 8.7 6.0
2020-Jan-28 00:45 290 8 8.7 6.0
2020-Jan-28 00:40 290 7 8.7 6.0
2020-Jan-28 00:35 290 7 8.7 7.0
2020-Jan-28 00:30 300 7 8.7 6.0
2020-Jan-28 00:25 290 5 8.7 6.0
2020-Jan-28 00:20 290 8 8.7 7.0
2020-Jan-28 00:15 290 7 8.7 6.0
2020-Jan-28 00:10 300 7 8.7 6.0
2020-Jan-28 00:05 300 6 8.7 7.0
2020-Jan-28 00:00 300 8 8.7 7.0
2020-Jan-27 23:55 310 6 8.7 7.0
2020-Jan-27 23:51 310 6 8.7 6.1
2020-Jan-27 23:50 310 6 8.7 6.0
2020-Jan-27 23:45 290 7 8.7 6.0
2020-Jan-27 23:40 300 7 8.7 6.0
2020-Jan-27 23:35 300 7 8.7 7.0
2020-Jan-27 23:30 300 8 8.7 7.0
2020-Jan-27 23:25 300 7 8.7 7.0
2020-Jan-27 23:20 300 7 8.7 7.0
2020-Jan-27 23:15 300 8 8.7 7.0
2020-Jan-27 23:10 300 9 8.7 7.0
2020-Jan-27 23:05 310 9 8.7 7.0
2020-Jan-27 23:00 320 10 8.7 7.0
2020-Jan-27 22:55 310 9 8.7 7.0
2020-Jan-27 22:51 310 8 8.7 6.7
2020-Jan-27 22:50 310 10 8.7 7.0
2020-Jan-27 22:45 310 9 8.7 7.0
2020-Jan-27 22:40 310 8 8.7 7.0
2020-Jan-27 22:35 310 10 8.7 7.0
2020-Jan-27 22:30 290 14 8.7 7.0
2020-Jan-27 22:25 300 11 8.7 7.0
2020-Jan-27 22:20 300 12 8.7 7.0
2020-Jan-27 22:15 310 9 8.7 7.0
2020-Jan-27 22:10 310 10 8.7 7.0
2020-Jan-27 22:05 300 10 8.7 7.0
2020-Jan-27 22:00 300 12 8.7 7.0
2020-Jan-27 21:55 300 13 8.7 7.0
2020-Jan-27 21:51 310 13 8.7 6.7
2020-Jan-27 21:50 310 14 8.7 7.0
2020-Jan-27 21:45 310 14 8.7 7.0
2020-Jan-27 21:40 300 12 8.7 7.0
2020-Jan-27 21:35 320 13 8.7 7.0
2020-Jan-27 21:30 320 12 8.7 8.0
2020-Jan-27 21:25 300 10 8.7 7.0
2020-Jan-27 21:20 300 12 8.7 7.0
2020-Jan-27 21:15 290 11 8.7 8.0
2020-Jan-27 21:10 270 12 8.7 8.0
2020-Jan-27 21:05 270 14 8.7 8.0
2020-Jan-27 21:00 270 14 8.7 8.0
2020-Jan-27 20:55 270 13 8.7 8.0
2020-Jan-27 20:51 300 11 8.7 7.8
2020-Jan-27 20:50 300 12 8.7 8.0
2020-Jan-27 20:45 290 11 8.7 7.0
2020-Jan-27 20:40 290 14 8.7 8.0
2020-Jan-27 20:35 280 11 8.7 8.0
2020-Jan-27 20:30 300 10 8.7 8.0
2020-Jan-27 20:25 310 14 8.7 8.0
2020-Jan-27 20:20 300 14 8.7 8.0
2020-Jan-27 20:15 290 10 8.7 7.0
2020-Jan-27 20:10 290 14 8.7 7.0
2020-Jan-27 20:05 280 13 8.7 8.0
2020-Jan-27 20:00 300 12 8.7 8.0
2020-Jan-27 19:55 290 11 8.7 8.0
2020-Jan-27 19:51 260 14 gusting 20 8.7 7.2
2020-Jan-27 19:50 270 16 8.7 7.0
2020-Jan-27 19:45 270 16 8.7 8.0
2020-Jan-27 19:40 280 12 8.7 8.0
2020-Jan-27 19:35 280 9 8.7 8.0
2020-Jan-27 19:30 280 8 8.7 8.0
2020-Jan-27 19:25 250 10 8.7 7.0
2020-Jan-27 19:20 250 13 8.7 7.0
2020-Jan-27 19:15 250 10 8.7 7.0
2020-Jan-27 19:10 240 13 8.7 7.0
2020-Jan-27 19:05 240 12 8.7 7.0
2020-Jan-27 19:00 250 13 8.7 7.0
2020-Jan-27 18:55 240 12 8.7 7.0
2020-Jan-27 18:51 240 13 8.7 6.1
2020-Jan-27 18:50 240 13 8.7 6.0
2020-Jan-27 18:45 230 13 8.7 6.0
2020-Jan-27 18:40 230 13 8.7 6.0
2020-Jan-27 18:35 240 12 gusting 17 8.7 6.0
2020-Jan-27 18:30 240 14 8.7 6.0
2020-Jan-27 18:25 250 11 8.7 7.0
2020-Jan-27 18:20 250 13 8.7 6.0
2020-Jan-27 18:15 230 16 8.7 6.0
2020-Jan-27 18:10 240 15 8.7 7.0
2020-Jan-27 18:05 240 13 8.7 7.0
2020-Jan-27 18:00 230 12 8.7 6.0
2020-Jan-27 17:55 240 13 8.7 6.0
2020-Jan-27 17:51 240 14 8.7 6.1
2020-Jan-27 17:50 230 15 8.7 6.0
2020-Jan-27 17:45 230 14 8.7 6.0
2020-Jan-27 17:40 220 13 8.7 6.0
2020-Jan-27 17:35 250 15 8.7 6.0
2020-Jan-27 17:30 240 14 8.7 6.0
2020-Jan-27 17:25 240 14 8.7 6.0
2020-Jan-27 17:20 240 15 8.7 7.0
2020-Jan-27 17:15 230 13 8.7 7.0
2020-Jan-27 17:10 240 13 8.7 7.0
2020-Jan-27 17:05 250 14 8.7 6.0
2020-Jan-27 17:00 240 14 8.7 6.0
2020-Jan-27 16:55 240 14 8.7 6.0
2020-Jan-27 16:51 250 14 8.7 6.1
2020-Jan-27 16:50 240 15 8.7 6.0
2020-Jan-27 16:45 240 13 8.7 6.0
2020-Jan-27 16:40 230 14 8.7 6.0
2020-Jan-27 16:35 230 14 8.7 6.0
2020-Jan-27 16:30 250 12 8.7 6.0
2020-Jan-27 16:25 250 13 8.7 6.0
2020-Jan-27 16:20 250 14 8.7 6.0
2020-Jan-27 16:15 230 14 gusting 19 8.7 6.0
2020-Jan-27 16:10 250 15 8.7 6.0
2020-Jan-27 16:05 240 12 8.7 6.0
2020-Jan-27 16:00 240 16 8.7 6.0
2020-Jan-27 15:55 240 13 8.7 6.0
2020-Jan-27 15:51 240 13 8.7 5.6
2020-Jan-27 15:50 240 14 8.7 6.0
2020-Jan-27 15:45 240 11 8.7 6.0
2020-Jan-27 15:40 230 13 8.7 6.0
2020-Jan-27 15:35 230 13 8.7 6.0
2020-Jan-27 15:30 230 12 8.7 6.0
2020-Jan-27 15:25 240 11 8.7 6.0
2020-Jan-27 15:20 230 12 8.7 5.0
2020-Jan-27 15:15 230 13 8.7 5.0
2020-Jan-27 15:10 240 14 8.7 5.0
2020-Jan-27 15:05 240 11 8.7 5.0
2020-Jan-27 15:00 240 12 8.7 5.0
2020-Jan-27 14:55 240 11 8.7 5.0
2020-Jan-27 14:51 230 11 8.7 4.4
2020-Jan-27 14:50 230 11 8.7 4.0
2020-Jan-27 14:45 230 11 8.7 4.0
2020-Jan-27 14:40 230 13 8.7 4.0
2020-Jan-27 14:35 230 11 8.7 4.0
2020-Jan-27 14:30 230 12 8.7 4.0
2020-Jan-27 14:25 240 10 8.7 4.0
2020-Jan-27 14:20 240 10 8.7 4.0
2020-Jan-27 14:15 230 11 8.7 4.0
2020-Jan-27 14:10 240 10 8.7 4.0
2020-Jan-27 14:05 240 12 8.7 4.0
2020-Jan-27 14:00 240 11 8.7 4.0
2020-Jan-27 13:55 230 10 8.7 4.0
2020-Jan-27 13:51 230 11 8.7 3.9
2020-Jan-27 13:50 230 11 8.7 4.0
2020-Jan-27 13:45 240 10 8.7 4.0
2020-Jan-27 13:40 220 10 8.7 3.0
2020-Jan-27 13:35 230 8 8.7 3.0
2020-Jan-27 13:30 220 10 8.7 3.0
2020-Jan-27 13:25 220 8 8.7 3.0
2020-Jan-27 13:20 220 10 8.7 3.0
2020-Jan-27 13:15 220 8 8.7 3.0
2020-Jan-27 13:10 220 10 8.7 3.0
2020-Jan-27 13:05 230 8 8.7 3.0
2020-Jan-27 13:00 220 8 8.7 3.0
2020-Jan-27 12:55 230 10 8.7 3.0
2020-Jan-27 12:51 230 12 8.7 2.8
2020-Jan-27 12:50 220 11 8.7 3.0
2020-Jan-27 12:45 230 10 8.7 3.0
2020-Jan-27 12:40 230 10 8.7 3.0
2020-Jan-27 12:35 230 10 8.7 3.0
2020-Jan-27 12:30 230 10 8.7 3.0
2020-Jan-27 12:25 230 11 8.7 3.0
2020-Jan-27 12:20 230 12 8.7 3.0
2020-Jan-27 12:15 230 11 8.7 3.0
2020-Jan-27 12:10 230 10 8.7 3.0
2020-Jan-27 12:05 220 10 8.7 3.0
2020-Jan-27 12:00 230 12 8.7 3.0
2020-Jan-27 11:55 230 10 8.7 3.0
2020-Jan-27 11:51 230 11 8.7 2.2
2020-Jan-27 11:50 230 11 8.7 2.0
2020-Jan-27 11:45 220 11 8.7 2.0
2020-Jan-27 11:40 230 10 8.7 2.0
2020-Jan-27 11:35 220 10 8.7 2.0
2020-Jan-27 11:30 230 10 8.7 2.0
2020-Jan-27 11:25 230 12 8.7 2.0
2020-Jan-27 11:20 230 12 8.7 2.0
2020-Jan-27 11:15 230 9 8.7 2.0
2020-Jan-27 11:10 230 10 8.7 2.0
2020-Jan-27 11:05 230 8 8.7 2.0
2020-Jan-27 11:00 230 8 8.7 2.0
2020-Jan-27 10:55 230 10 8.7 2.0
2020-Jan-27 10:51 230 7 8.7 2.2
2020-Jan-27 10:50 230 7 8.7 2.0
2020-Jan-27 10:45 230 10 8.7 2.0
2020-Jan-27 10:40 230 9 8.7 2.0
2020-Jan-27 10:35 230 9 8.7 2.0
2020-Jan-27 10:30 230 11 8.7 2.0
2020-Jan-27 10:25 230 9 8.7 2.0
2020-Jan-27 10:20 230 10 8.7 2.0
2020-Jan-27 10:15 230 10 8.7 2.0
2020-Jan-27 10:10 230 11 8.7 2.0
2020-Jan-27 10:05 230 10 8.7 2.0
2020-Jan-27 10:00 230 11 8.7 2.0
2020-Jan-27 09:55 230 10 8.7 2.0
2020-Jan-27 09:51 230 9 8.7 2.2
2020-Jan-27 09:50 230 11 8.7 2.0
2020-Jan-27 09:45 230 10 8.7 2.0
2020-Jan-27 09:40 220 9 8.7 2.0
2020-Jan-27 09:35 230 11 8.7 2.0
2020-Jan-27 09:30 220 8 8.7 2.0
2020-Jan-27 09:25 220 8 8.7 2.0
2020-Jan-27 09:20 230 8 8.7 2.0
2020-Jan-27 09:15 230 8 8.7 2.0
2020-Jan-27 09:10 230 9 8.7 2.0
2020-Jan-27 09:05 240 10 8.7 2.0
2020-Jan-27 09:00 230 10 8.7 2.0
2020-Jan-27 08:55 230 10 8.7 2.0
2020-Jan-27 08:51 230 7 8.7 2.2
2020-Jan-27 08:50 230 8 8.7 2.0
2020-Jan-27 08:45 230 9 8.7 2.0
2020-Jan-27 08:40 230 9 8.7 2.0
2020-Jan-27 08:35 230 9 8.7 3.0
2020-Jan-27 08:30 240 12 8.7 3.0
2020-Jan-27 08:25 240 10 8.7 2.0
2020-Jan-27 08:20 240 10 8.7 2.0
2020-Jan-27 08:15 240 10 8.7 2.0
2020-Jan-27 08:10 240 9 8.7 2.0
2020-Jan-27 08:05 250 10 8.7 3.0
2020-Jan-27 08:00 240 9 8.7 3.0
2020-Jan-27 07:55 250 10 8.7 2.0
2020-Jan-27 07:51 240 12 8.7 2.2
2020-Jan-27 07:50 240 12 8.7 2.0
2020-Jan-27 07:45 240 10 8.7 3.0
2020-Jan-27 07:40 240 11 8.7 2.0
2020-Jan-27 07:35 240 11 8.7 2.0
2020-Jan-27 07:30 240 12 8.7 2.0
2020-Jan-27 07:25 240 12 8.7 2.0
2020-Jan-27 07:20 240 11 8.7 2.0
2020-Jan-27 07:15 240 11 8.7 2.0
2020-Jan-27 07:10 240 10 8.7 2.0
2020-Jan-27 07:05 240 9 8.7 2.0
2020-Jan-27 07:00 240 9 8.7 2.0
2020-Jan-27 06:55 230 9 8.7 2.0
2020-Jan-27 06:51 220 7 8.7 1.1
2020-Jan-27 06:50 220 7 8.7 1.0
2020-Jan-27 06:45 220 8 8.7 1.0
2020-Jan-27 06:40 220 8 8.7 1.0
2020-Jan-27 06:35 220 9 8.7 1.0
2020-Jan-27 06:30 210 7 8.7 1.0
2020-Jan-27 06:25 210 7 8.7 1.0
2020-Jan-27 06:20 220 7 8.7 1.0
2020-Jan-27 06:15 220 7 8.7 1.0
2020-Jan-27 06:10 220 7 8.7 1.0
2020-Jan-27 06:05 220 7 8.7 1.0
2020-Jan-27 06:00 220 7 8.7 1.0
2020-Jan-27 05:55 220 6 8.7 1.0
2020-Jan-27 05:51 220 6 8.7 0.6
2020-Jan-27 05:50 220 7 8.7 1.0
2020-Jan-27 05:45 220 7 8.7 1.0
2020-Jan-27 05:40 220 7 8.7-0.0
2020-Jan-27 05:35 220 5 8.7 1.0
2020-Jan-27 05:30 220 6 8.7 1.0
2020-Jan-27 05:25 220 6 8.7 1.0
2020-Jan-27 05:20 220 6 8.7-0.0
2020-Jan-27 05:15 210 6 8.7 1.0
2020-Jan-27 05:10 220 6 8.7 1.0
2020-Jan-27 05:05 220 7 8.7 2.0
2020-Jan-27 05:00 230 10 8.7 2.0
2020-Jan-27 04:55 240 8 8.7 2.0
2020-Jan-27 04:51 240 8 8.7 2.2
2020-Jan-27 04:50 240 8 8.7 2.0
2020-Jan-27 04:45 250 7 8.7 3.0
2020-Jan-27 04:40 250 8 8.7 3.0
2020-Jan-27 04:35 260 8 8.7 3.0
2020-Jan-27 04:30 260 8 8.7 3.0
2020-Jan-27 04:25 250 8 8.7 3.0
2020-Jan-27 04:20 250 8 8.7 3.0
2020-Jan-27 04:15 250 7 8.7 3.0
2020-Jan-27 04:10 250 10 8.7 3.0
2020-Jan-27 04:05 250 9 8.7 3.0
2020-Jan-27 04:00 240 9 8.7 3.0
2020-Jan-27 03:55 240 9 8.7 3.0
2020-Jan-27 03:51 240 8 8.7 2.8
2020-Jan-27 03:50 240 9 8.7 3.0
2020-Jan-27 03:45 240 11 8.7 3.0
2020-Jan-27 03:40 240 9 8.7 3.0
2020-Jan-27 03:35 240 8 8.7 3.0
2020-Jan-27 03:30 240 8 8.7 3.0
2020-Jan-27 03:25 240 9 8.7 3.0
2020-Jan-27 03:20 230 10 8.7 3.0
2020-Jan-27 03:15 240 8 8.7 3.0
2020-Jan-27 03:10 240 10 8.7 3.0
2020-Jan-27 03:05 230 9 8.7 3.0
2020-Jan-27 03:00 240 10 8.7 3.0
2020-Jan-27 02:55 240 9 8.7 3.0
2020-Jan-27 02:51 230 7 8.7 3.3
2020-Jan-27 02:50 230 9 8.7 3.0
2020-Jan-27 02:45 220 7 8.7 3.0
2020-Jan-27 02:40 220 8 8.7 3.0
2020-Jan-27 02:35 230 9 8.7 3.0
2020-Jan-27 02:30 230 10 8.7 4.0
2020-Jan-27 02:25 230 10 8.7 4.0
2020-Jan-27 02:20 240 10 8.7 4.0
2020-Jan-27 02:15 240 8 8.7 4.0
2020-Jan-27 02:10 250 9 8.7 4.0
2020-Jan-27 02:05 250 9 8.7 4.0
2020-Jan-27 02:00 250 11 8.7 4.0
2020-Jan-27 01:55 250 11 8.7 4.0
2020-Jan-27 01:51 250 11 8.7 4.4
2020-Jan-27 01:50 250 11 8.7 4.0
2020-Jan-27 01:45 250 10 8.7 4.0
2020-Jan-27 01:40 250 9 8.7 4.0
2020-Jan-27 01:35 250 11 8.7 4.0
2020-Jan-27 01:30 240 11 8.7 4.0
2020-Jan-27 01:25 250 9 8.7 4.0
2020-Jan-27 01:20 250 10 8.7 4.0
2020-Jan-27 01:15 250 11 8.7 4.0
2020-Jan-27 01:10 260 11 8.7 4.0
2020-Jan-27 01:05 260 12 8.7 4.0
2020-Jan-27 01:00 260 12 8.7 4.0
2020-Jan-27 00:55 250 14 gusting 20 8.7 5.0
2020-Jan-27 00:51 250 13 8.7 5.0
2020-Jan-27 00:50 250 13 8.7 5.0
2020-Jan-27 00:45 250 12 8.7 5.0
2020-Jan-27 00:40 250 14 8.7 5.0
2020-Jan-27 00:35 250 14 8.7 5.0
2020-Jan-27 00:30 250 12 8.7 5.0
2020-Jan-27 00:25 250 13 8.7 5.0
2020-Jan-27 00:20 240 9 8.7 6.0
2020-Jan-27 00:15 250 9 8.7 6.0
2020-Jan-27 00:10 260 9 8.7 6.0
2020-Jan-27 00:05 250 10 8.7 6.0
2020-Jan-27 00:00 260 10 8.7 6.0
2020-Jan-26 23:55 260 10 8.7 6.0
2020-Jan-26 23:51 260 13 8.7 5.6
2020-Jan-26 23:50 260 13 8.7 6.0
2020-Jan-26 23:45 260 10 8.7 6.0
2020-Jan-26 23:40 260 11 8.7 6.0
2020-Jan-26 23:35 270 12 8.7 6.0
2020-Jan-26 23:30 260 10 8.7 6.0
2020-Jan-26 23:25 260 12 8.7 6.0
2020-Jan-26 23:20 250 11 8.7 6.0
2020-Jan-26 23:15 260 11 8.7 7.0
2020-Jan-26 23:10 260 9 8.7 7.0
2020-Jan-26 23:05 260 12 8.7 7.0
2020-Jan-26 23:00 260 13 8.7 7.0